Weather History for 91554 - September, 2013

Change the Weather History Date:

Monday, September 16, 2013

  Actual Average Record
Temperature  
Mean Temperature 79 °F -  
Max Temperature 86 °F - - ()
Min Temperature 74 °F - - ()
Cooling Degree Days 14    
Growing Degree Days 29 (Base 50)    
Moisture  
Dew Point 73 °F    
Average Humidity 77    
Maximum Humidity 91    
Minimum Humidity 64    
Precipitation  
Precipitation 0.00 in - - ()
Sea Level Pressure  
Sea Level Pressure 29.87 in    
Wind  
Wind Speed 8 mph ()    
Max Wind Speed 17 mph    
Max Gust Speed -    
Visibility 8.4 miles    
Events      
T = Trace of Precipitation, MM = Missing Value Source: Averaged Metar Reports

Daily Weather History Graph

Daily Weather History Graph

Search for Another Location

Airport or City:

Trip Planner

Search our weather history database for the weather conditions in past years. The results will help you decide how hot, cold, wet, or windy it might be!

Date:

Astronomy

Sep. 16, 2013 Rise Set
Actual Time 5:45 AM VUT 5:46 PM VUT
Civil Twilight 5:24 AM VUT 6:08 PM VUT
Nautical Twilight 4:59 AM VUT 6:33 PM VUT
Astronomical Twilight 4:34 AM VUT 6:57 PM VUT
Moon 2:37 PM VUT (9/16) 2:41 AM VUT (9/16)
Length of Visible Light 12h 43m
Length of Day
12h 00m
Waxing Gibbous, 85% of the Moon is Illuminated
Sep 16
Waxing Gibbous
Sep 19
Full
Sep 27
Last Quarter
Oct 5
New
Oct 12
First Quarter

Hourly Weather History & Observations

Time (VUT) Temp. Heat Index Dew Point Humidity Pressure Visibility Wind Dir Wind Speed Gust Speed Precip Events Conditions
2:00 AM 78 °F - 72 °F 77% 29.88 in 12 mi East 9.2 mph - -   Partly Cloudy
2:00 AM 77.0 °F - 71.6 °F 83% 29.86 in 6.2 mi East 9.2 mph - N/A   Mostly Cloudy
5:00 AM 77 °F - 72 °F 80% 29.88 in 12 mi East 5.8 mph - -   Partly Cloudy
5:00 AM 77.0 °F - 71.6 °F 83% 29.86 in 6.2 mi East 5.8 mph - N/A   Mostly Cloudy
6:00 AM 77.0 °F - 71.6 °F 83% 29.89 in 6.2 mi East 5.8 mph - N/A   Mostly Cloudy
7:00 AM 80.6 °F 85.4 °F 73.4 °F 79% 29.89 in 6.2 mi East 3.5 mph - N/A   Partly Cloudy
8:00 AM 82 °F - 72 °F 66% 29.92 in 12 mi ENE 10.4 mph - -   Partly Cloudy
8:00 AM 80.6 °F 84.6 °F 71.6 °F 74% 29.92 in 6.2 mi ENE 10.4 mph - N/A   Partly Cloudy
9:00 AM 82.4 °F 88.2 °F 73.4 °F 74% 29.92 in 6.2 mi ESE 17.3 mph - N/A   Mostly Cloudy
11:00 AM 83 °F - 73 °F 64% 29.89 in 12 mi ESE 17.3 mph - -   Partly Cloudy
11:00 AM 82.4 °F 87.2 °F 71.6 °F 70% 29.89 in 6.2 mi ESE 17.3 mph - N/A   Mostly Cloudy
12:00 PM 84.2 °F 90.9 °F 73.4 °F 70% 29.86 in 6.2 mi ENE 17.3 mph - N/A   Mostly Cloudy
2:00 PM 83 °F - 73 °F 64% 29.83 in 12 mi East 12.7 mph - -   Partly Cloudy
2:00 PM 82.4 °F 87.2 °F 71.6 °F 70% 29.80 in 6.2 mi East 12.7 mph - N/A   Scattered Clouds
3:00 PM 82.4 °F 87.2 °F 71.6 °F 70% 29.80 in 6.2 mi East 11.5 mph - N/A   Scattered Clouds
5:00 PM 81 °F - 75 °F 77% 29.83 in 12 mi East 6.9 mph - -   Partly Cloudy
5:00 PM 80.6 °F 85.4 °F 73.4 °F 79% 29.83 in 6.2 mi East 6.9 mph - N/A   Mostly Cloudy
6:00 PM 78.8 °F - 73.4 °F 83% 29.83 in 6.2 mi Variable 1.2 mph - N/A   Scattered Clouds
8:00 PM 79 °F - 75 °F 83% 29.88 in 12 mi ENE 2.3 mph - -   Partly Cloudy
8:00 PM 77.0 °F - 73.4 °F 89% 29.86 in 6.2 mi ENE 2.3 mph - N/A   Scattered Clouds
11:00 PM 75 °F - 73 °F 91% 29.88 in 12 mi NE 5.8 mph - -   Partly Cloudy